Location: Castiglione Fibocchi
(43.5333°N, 11.7667°E)
Time: 10:18:45
(UTC+00:00)

Cosmos 2098 Rocket - Pass Details

Date: 15 August 2020
Orbit: 367 x 1184 km, 82.9° (Epoch: 18 September)

Event Time Altitude Azimuth Distance (km) Brightness Sun altitude
Rises 01:39:02 0° 344° (NNW) 3,325 7.3 -24.1°
Reaches altitude 10° 01:41:20 10° 337° (NNW) 2,508 6.5 -23.8°
Maximum altitude 01:46:46 43° 269° (W) 1,364 4.4 -23.2°
Enters shadow 01:47:29 41° 252° (WSW) 1,412 4.4 -23.1°
